Regional Weather Roundup
Issued by NWS

Home | Current Version | Previous Version | Text Only | Print | Product List | Glossary Off
Versions: 1 2 3 4 5 6 7 8 9 10 11 12 13 14 15 16 17 18 19 20 21 22 23 24 25 26 27 28 29 30 31 32 33 34 35 36 37 38 39 40 41 42 43 44 45 46 47 48 49 50

000
ASUS43 KLOT 291109
RWRIL

ILLINOIS REGIONAL WEATHER ROUNDUP
NATIONAL WEATHER SERVICE CHICAGO/ROMEOVILLE IL
600 AM CDT MON AUG 29 2016

NOTE: "FAIR" INDICATES FEW OR NO CLOUDS BELOW 12,000 FEET WITH NO
SIGNIFICANT WEATHER AND/OR OBSTRUCTIONS TO VISIBILITY.

* THESE STATIONS ARE NOT UNDER NWS QUALITY CONTROL. THEY ALSO MAY NOT
  REPORT WEATHER SUCH AS PRECIPITATION OR FOG.

ILZ001-002-007-009-015-016-024-291200-
NORTHWEST ILLINOIS

CITY           SKY/WX    TMP DP  RH WIND       PRES   REMARKS
MOLINE         CLOUDY    70  68  93 E8        30.18S FOG
STERLING*      CLEAR     68  68 100 E5        30.21R FOG
SAVANNA*       CLEAR     67  66  97 NE3       30.20S FOG
$$

ILZ003-004-008-010-011-017-018-291200-
NORTH CENTRAL ILLINOIS

CITY           SKY/WX    TMP DP  RH WIND       PRES   REMARKS
ROCKFORD       CLOUDY    69  67  93 E5        30.23
FREEPORT*      FOG       65  65  99 NE3       30.24S VSB 1/2
ROCHELLE*      CLEAR     67  66  98 NE3       30.22S FOG
DE KALB*       CLEAR     67  66  99 NE6       30.23S FOG
$$

ILZ005-006-012>014-019>023-291200-
NORTHEAST ILLINOIS

CITY           SKY/WX    TMP DP  RH WIND       PRES   REMARKS
CHICAGO-OHARE  PTCLDY    70  68  93 N6        30.21S
CHICAGO-MIDWAY PTCLDY    73  67  81 NE6       30.20S
AURORA         CLEAR     69  67  93 NE6       30.21S
LANSING*       CLEAR     69  69 100 CALM      30.20S
JOLIET*        CLEAR     70  69  98 CALM      30.20S FOG
WAUKEGAN       PTCLDY    67  66  97 N5        30.23R
DUPAGE AIRPORT CLEAR     68  66  93 NE5       30.21S
KANKAKEE*      CLEAR     68  67  98 CALM      30.19S FOG
WHEELING       CLEAR     69  68  96 N3        30.23S
MORRIS*        CLEAR     67  66  97 CALM      30.19R FOG
ROMEOVILLE*    CLEAR     69  69 100 NE5       30.21S
$$

LMZ740>746-291200-
SOUTHERN LAKE MICHIGAN

STATION/POSITION SKY/WX   TEMP    WIND        PRES    VSBY  WAVE
                          AIR SEA DIR/SP/G                  HT/PER
                          (F)     (DEG/KT/KT) (MB)    (MI)  (FT/S)
SOUTHERN BUOY              73 75   40/  6/  8 1023.0F         0
WILMETTE HARBOR            73 72   50/  4/  8   N/A           1/ 3
HARRISON CRIB              75      60/  8/  9   N/A
BURNHAM HARBOR             71     360/  4/  5   N/A
CALUMET HARBOR             72      30/  4/  6 1022.1S
BURNS HARBOR               70      80/  5/  7 1023.0S
MICHIGAN CITY              69      40/  7/  7   N/A
MICHIGAN CITY 6N           74 76   40/  8/ 10   N/A           1/ 3
ST. JOSEPH                 71 75   50/  6/  8 1023.0R         1
$$

ILZ025>027-034>036-040-047-049-050-058-095>099-291200-
WEST-CENTRAL ILLINOIS

CITY           SKY/WX    TMP DP  RH WIND       PRES   REMARKS
QUINCY         CLEAR     71  71 100 NE6       30.16R
GALESBURG*     PTCLDY    69  68  97 N6        30.19R THUNDER
MACOMB*        CLEAR     67  67 100 CALM      30.20R FOG
JACKSONVILLE*  CLEAR     69  68  97 CALM      30.15S FOG
PITTSFIELD*    FOG       70  70  99 CALM      30.17R VSB 1/2
$$

ILZ028>032-037-038-041>044-048-051>054-059>061-291200-
CENTRAL ILLINOIS

CITY           SKY/WX    TMP DP  RH WIND       PRES   REMARKS
PONTIAC        CLEAR     68  68 100 NE5       30.20R FOG
BLOOMINGTON    CLEAR     68  66  93 N3        30.20R
DECATUR        CLEAR     69  68  96 NE3       30.18R FOG
PEORIA         CLEAR     69  69 100 CALM      30.19R
LACON*         CLEAR     66  65  97 CALM      30.18S THUNDER FOG
LINCOLN*       CLEAR     70  70 100 CALM      30.17S
SPRINGFIELD    CLEAR     72  70  93 E3        30.17R
TAYLORVILLE    CLEAR     70  70  99 CALM      30.17R
$$

ILZ033-039-045-046-055>057-062-063-291200-
EAST-CENTRAL ILLINOIS

CITY           SKY/WX    TMP DP  RH WIND       PRES   REMARKS
CHAMPAIGN      CLEAR     69  67  93 E5        30.18R
RANTOUL*       CLEAR     69  69  98 CALM      30.18R
MATTOON        CLEAR     70  67  90 CALM      30.17R
PARIS*         CLEAR     67  67 100 CALM      30.18R
$$

ILZ079-100>102-291200-
SOUTHWEST ILLINOIS

CITY           SKY/WX    TMP DP  RH WIND       PRES   REMARKS
ALTON            N/A     69  68  98 CALM      30.14S FOG
BELLEVILLE     CLEAR     72  72 100 E3        30.12R
CAHOKIA*       CLEAR     73  70  90 CALM      30.12S FOG
SPARTA*        FOG       70  69  98 CALM      30.14R VSB 1/2
$$

ILZ064>066-069>071-074>076-080>082-084>086-088>090-092>094-291200-
SOUTH-CENTRAL ILLINOIS

CITY           SKY/WX    TMP DP  RH WIND       PRES   REMARKS
CARBONDALE     FOG       70  70 100 CALM      30.13R VSB 1/4
CAIRO*         CLEAR     72  72 100 CALM      30.12R
EFFINGHAM*     CLEAR     70  70 100 CALM      30.18S
MARION         CLEAR     75  73  94 E3        30.14R FOG
MT. VERNON     CLEAR     70  64  83 NE5       30.16R
CENTRALIA*     CLEAR     71  70  98 CALM      30.14R
SALEM*         CLEAR     73  69  87 CALM      30.15R
METROPOLIS*    CLEAR     72  71  98 CALM      30.13R FOG
$$

ILZ067-068-072-073-078-083-087-091-291200-
SOUTHEAST ILLINOIS

CITY           SKY/WX    TMP DP  RH WIND       PRES   REMARKS
LAWRENCEVILLE  CLEAR     69  69 100 NE5       30.17R FOG
FLORA*         CLEAR     71  69  93 CALM      30.16R
FAIRFIELD*       N/A     70  69  98 CALM      30.14S
HARRISBURG*    CLEAR     73  72  98 CALM      30.14R
ROBINSON*      FOG       64  64 100 CALM        N/A  VSB 1/2
CARMI*         CLEAR     70  70 100 CALM      30.15R FOG
$$

ABBREVIATIONS USED IN REMARKS
   TC - TEMPERATURE IN CELSIUS
  WCI - WIND CHILL INDEX
   HX - HEAT INDEX
  VSB - VISIBILITY
$$





USA.gov is the U.S. government's official web portal to all federal, state and local government web resources and services.